Wind_Speed
11 11 10 10 10 9 8 7 6 5 5 5 4 3 2 2 2 2 1 1 0 0 0 1 1 1 2 4 4 4 4 3 3 3 3 4 5 4 4 4 4 4 4
10 10 10 10 9 8 7 6 6 6 5 5 4 3 3 2 2 1 1 1 1 0 0 1 1 2 2 3 3 4 4 3 3 3 3 3 4 4 4 3 4 4 4
10 10 10 9 8 7 7 6 6 6 5 4 4 3 3 2 2 2 1 1 1 0 1 1 1 1 2 2 2 3 4 3 3 3 3 3 4 4 4 4 4 4 4
10 10 9 9 8 8 7 5 5 5 5 4 3 3 3 3 2 2 2 2 2 1 1 1 1 1 2 2 2 3 3 3 3 3 3 2 3 4 4 3 4 5 5
9 9 9 9 8 8 7 5 5 5 4 4 4 3 3 3 3 2 2 2 2 1 2 2 2 2 2 2 2 3 3 3 3 3 3 2 3 3 3 3 4 5 5
9 9 8 9 8 8 7 6 5 5 4 4 4 4 4 3 3 3 2 2 2 2 2 3 3 3 3 2 2 2 3 3 3 3 3 2 2 1 2 3 4 4 5
9 9 9 9 8 8 8 7 5 5 5 4 4 4 4 4 4 3 3 3 2 2 2 2 3 3 3 3 3 2 2 2 3 3 3 3 2 2 2 2 3 4 4
9 9 9 9 8 8 8 7 6 5 5 4 4 4 4 4 4 4 3 3 3 3 3 2 3 3 3 3 3 3 3 3 3 3 3 3 3 2 2 2 3 3 4
9 9 8 8 8 8 8 8 6 5 5 5 5 5 5 4 4 3 3 3 3 3 3 3 3 3 3 3 3 3 3 3 3 4 4 4 3 3 3 3 2 3 4
9 9 9 8 8 8 8 8 7 5 5 5 5 5 5 4 4 3 3 3 3 3 3 3 2 3 3 3 3 3 3 2 3 4 4 4 3 3 3 3 3 4 4
9 9 9 9 9 9 8 8 7 6 5 5 5 5 5 4 4 3 3 3 3 3 4 3 3 3 3 3 3 3 3 3 3 4 4 3 3 3 3 4 4 4 4
9 10 10 10 10 9 8 8 8 7 6 6 6 6 6 5 4 4 3 3 3 3 3 3 3 3 3 3 3 3 3 3 4 5 5 4 4 3 4 4 4 3 4
9 10 10 10 11 10 9 8 8 7 6 6 6 6 6 5 4 4 4 3 3 3 3 3 4 4 4 4 4 4 4 4 4 4 5 5 4 4 4 4 4 4 5
10 10 11 11 11 10 10 9 8 7 7 6 6 6 6 5 5 4 4 3 3 3 3 3 4 4 4 4 4 4 5 4 4 4 5 5 5 5 5 5 5 5 6
10 10 11 11 11 10 10 10 8 8 7 7 6 6 6 6 5 5 4 3 3 4 4 4 4 4 4 4 4 5 5 5 5 5 5 5 5 5 5 5 5 6 5
11 11 11 11 12 12 11 10 9 9 8 7 7 7 7 7 7 6 5 5 4 4 4 4 4 4 4 4 4 4 4 4 4 5 5 5 5 6 6 6 6 6 6
12 12 12 12 12 13 13 11 9 9 8 8 8 7 7 7 7 7 6 6 5 5 5 5 5 5 5 4 5 5 5 5 5 5 5 5 5 5 6 7 7 7 7
12 12 12 12 13 13 13 11 10 10 9 9 9 8 8 8 8 8 7 7 6 7 6 6 6 5 5 5 5 6 5 5 5 5 6 6 6 7 7 8 7 7 8
13 12 13 13 13 13 13 12 12 11 10 10 10 9 9 9 9 8 8 7 7 7 7 7 6 6 5 6 6 6 6 6 5 6 7 7 8 7 7 8 8 8 9
13 13 14 13 13 13 14 13 12 11 11 10 10 9 9 9 9 9 8 8 8 7 7 7 7 7 7 6 6 6 6 7 7 7 8 8 8 8 8 8 8 8 9
15 14 14 14 12 12 13 13 12 11 10 11 10 9 9 8 8 8 8 8 7 7 8 8 7 7 7 7 7 7 8 8 8 8 9 9 9 8 8 9 9 9 9
14 14 14 14 13 12 12 12 12 11 10 10 10 10 9 8 8 8 8 8 8 8 8 8 8 9 9 9 9 8 8 9 9 9 10 10 10 10 10 10 10 10 10
15 15 15 14 14 14 13 13 12 11 10 10 10 10 10 10 9 9 9 9 9 9 9 9 9 9 9 9 10 10 10 10 11 11 11 11 11 11 11 11 11 10 10
16 15 15 15 14 13 13 13 12 11 11 10 10 10 10 10 11 11 11 11 10 10 10 10 10 10 9 10 10 10 10 11 12 12 12 11 11 12 12 12 12 11 11
15 15 15 14 13 13 13 13 12 11 10 10 10 10 10 10 12 12 12 11 10 10 10 10 10 10 10 10 10 11 11 11 12 12 12 12 12 12 11 12 12 12 12
15 16 15 14 12 12 12 12 11 11 10 10 10 10 10 11 11 11 12 12 12 11 11 11 11 12 12 12 12 12 12 12 12 13 13 13 13 12 12 12 13 14 13
Wind_Direction
13 16 17 16 15 16 16 9 12 11 7 3 358 345 335 330 334 330 349 347 17 138 19 93 124 145 158 157 151 158 160 156 164 172 179 182 178 180 182 182 176 167 168
17 17 16 16 15 16 17 16 13 9 9 9 8 2 355 348 346 342 346 347 11 97 115 128 124 138 143 160 162 169 170 171 167 171 177 185 185 185 188 195 185 178 175
15 14 14 15 16 17 16 12 13 9 9 12 12 4 354 350 347 337 322 328 335 281 165 140 130 128 136 153 175 181 180 182 183 187 184 194 196 195 194 191 187 184 182
8 9 11 13 15 18 14 10 14 13 11 8 3 359 351 338 330 327 320 326 323 260 208 205 189 169 159 162 176 186 196 199 195 196 185 189 191 197 202 201 192 191 191
1 4 9 13 12 13 11 6 7 6 4 4 357 351 345 339 329 323 321 321 316 272 242 223 214 200 189 197 194 193 202 198 196 192 189 186 194 204 201 198 200 196 193
360 1 6 11 10 8 6 1 358 355 356 359 355 347 341 332 326 325 323 318 305 282 248 231 233 225 214 221 214 201 208 199 197 198 194 191 197 199 191 192 188 192 201
359 358 358 2 5 3 1 354 349 346 345 346 343 342 338 334 327 320 316 307 291 284 252 238 234 232 224 223 221 209 213 214 212 209 206 207 207 206 183 183 190 205 211
354 351 351 355 358 359 358 355 347 340 335 334 335 338 333 329 319 313 310 296 292 280 251 239 237 224 217 219 231 223 215 219 214 211 210 215 211 205 218 246 223 223 220
348 347 345 348 349 349 349 348 347 341 330 325 329 328 327 322 319 313 301 299 299 286 264 244 235 231 222 217 228 228 228 225 221 216 221 221 211 221 246 248 249 249 238
343 345 345 344 344 341 343 344 341 334 330 322 320 320 318 319 320 321 313 308 300 296 285 262 238 227 222 214 222 225 229 224 223 231 230 228 230 248 252 250 256 251 249
338 341 341 339 340 340 339 340 339 332 331 327 321 313 311 313 314 316 320 313 306 296 286 261 232 224 218 223 230 234 235 225 235 226 231 245 261 264 264 257 264 256 254
332 333 335 333 332 332 331 331 332 331 331 327 323 314 310 307 304 308 313 311 301 287 278 264 249 258 251 246 235 236 231 240 246 237 242 252 263 269 270 271 270 272 264
325 324 328 329 328 325 323 321 325 324 321 321 321 320 314 304 300 302 302 304 305 297 282 271 276 265 257 255 247 243 242 258 255 244 247 253 258 268 273 282 281 273 271
318 320 320 319 319 319 319 316 317 321 315 309 310 310 307 302 297 299 300 303 301 301 296 275 267 263 250 245 245 244 244 245 250 247 245 248 256 269 276 283 285 279 272
315 315 316 316 316 314 313 309 307 309 305 302 303 302 295 291 289 292 291 291 287 284 282 280 271 264 255 246 244 245 246 251 257 251 250 260 263 266 268 274 278 285 287
308 311 312 315 310 310 307 301 297 296 294 294 292 296 290 285 282 284 280 277 278 275 270 276 275 261 254 254 257 258 259 260 268 254 254 260 262 265 271 277 278 283 283
307 309 309 310 310 310 305 296 293 291 289 287 287 288 284 279 278 272 273 274 269 269 267 273 271 264 263 260 259 265 269 269 264 260 259 265 266 273 279 278 277 282 279
305 308 306 307 307 306 304 294 293 295 287 281 279 283 282 278 273 268 267 269 265 266 268 273 275 266 271 270 268 272 277 278 270 266 272 273 275 280 280 279 281 280 274
298 303 304 303 303 302 302 298 292 292 285 281 276 281 281 278 272 266 262 260 262 264 261 259 264 267 265 268 270 268 270 271 274 278 280 276 277 281 281 280 279 276 272
292 295 298 299 300 299 299 296 291 289 285 280 279 281 282 280 275 267 259 256 255 255 254 256 264 265 265 271 269 268 270 271 273 276 279 277 276 276 275 278 282 278 272
292 295 296 295 299 299 298 294 290 289 284 275 272 273 276 280 274 265 257 253 252 250 253 259 263 265 270 275 272 269 266 264 268 271 275 279 278 275 276 280 284 281 273
289 293 295 295 295 296 297 296 289 285 279 273 269 269 271 269 266 266 261 261 260 260 261 261 266 270 270 270 269 268 264 262 265 269 274 278 277 276 276 277 278 278 272
288 291 297 293 295 295 295 293 292 284 274 273 268 269 267 265 264 264 262 263 259 258 261 260 263 266 267 267 268 267 262 261 265 268 270 273 274 274 272 271 273 274 273
284 286 290 289 290 292 292 288 286 283 279 274 268 268 270 269 267 265 263 261 258 259 259 262 264 269 267 269 270 269 268 270 269 268 267 267 271 272 271 270 273 274 275
278 281 284 284 284 286 288 288 284 280 280 275 270 268 269 271 270 264 261 257 256 259 262 266 267 268 269 272 272 271 270 272 271 268 266 267 268 269 272 272 272 275 274
273 276 277 277 279 282 285 284 280 277 277 278 274 270 269 268 267 262 258 255 257 259 260 265 267 268 269 270 273 273 272 272 269 267 267 267 267 267 271 272 272 272 272
Height
5891 5889 5888 5887 5886 5885 5884 5883 5883 5882 5881 5881 5880 5880 5879 5879 5879 5879 5878 5878 5877 5877 5877 5876 5876 5875 5875 5875 5876 5876 5877 5877 5877 5877 5877 5878 5878 5878 5879 5879 5879 5880 5880
5892 5890 5889 5888 5886 5886 5885 5884 5883 5883 5882 5881 5881 5880 5880 5879 5879 5879 5878 5878 5877 5877 5877 5876 5876 5876 5876 5875 5876 5876 5877 5877 5877 5877 5877 5878 5878 5878 5878 5879 5879 5879 5880
5892 5891 5889 5888 5887 5886 5885 5885 5884 5883 5882 5882 5881 5881 5880 5880 5879 5879 5878 5878 5877 5877 5877 5877 5876 5876 5876 5876 5876 5876 5877 5877 5877 5877 5877 5878 5878 5878 5878 5878 5879 5879 5879
5892 5891 5890 5889 5888 5887 5886 5885 5884 5884 5883 5882 5882 5881 5880 5880 5880 5879 5879 5878 5877 5876 5876 5877 5877 5876 5876 5876 5876 5876 5877 5877 5877 5877 5877 5877 5878 5878 5878 5878 5878 5879 5879
5893 5892 5891 5889 5888 5887 5886 5886 5885 5884 5883 5883 5882 5881 5881 5880 5880 5879 5879 5878 5877 5877 5876 5876 5876 5876 5876 5876 5876 5877 5877 5877 5877 5876 5877 5877 5877 5877 5878 5878 5878 5879 5879
5893 5892 5891 5890 5889 5888 5887 5886 5885 5884 5884 5883 5882 5881 5881 5880 5880 5879 5878 5878 5877 5877 5876 5876 5876 5876 5876 5876 5876 5876 5876 5876 5876 5876 5877 5877 5877 5877 5877 5877 5878 5878 5879
5893 5892 5891 5890 5889 5888 5887 5886 5885 5884 5884 5883 5882 5881 5881 5880 5879 5879 5878 5878 5877 5877 5876 5876 5876 5876 5876 5876 5876 5876 5876 5876 5877 5877 5877 5877 5877 5877 5877 5877 5877 5878 5878
5893 5892 5891 5890 5889 5888 5887 5886 5885 5884 5883 5883 5882 5881 5880 5880 5879 5878 5878 5877 5877 5876 5876 5875 5875 5875 5875 5876 5876 5876 5876 5876 5877 5877 5877 5877 5877 5877 5877 5877 5877 5877 5877
5893 5892 5891 5889 5888 5888 5887 5885 5884 5883 5883 5882 5881 5881 5880 5879 5878 5878 5877 5877 5876 5876 5875 5875 5874 5875 5875 5875 5875 5875 5876 5876 5876 5876 5876 5876 5876 5876 5876 5876 5876 5877 5877
5892 5891 5890 5889 5888 5887 5886 5885 5884 5883 5882 5881 5880 5880 5879 5878 5878 5877 5877 5876 5876 5875 5875 5874 5874 5874 5874 5874 5874 5875 5875 5875 5876 5876 5876 5876 5876 5876 5876 5876 5876 5876 5876
5891 5891 5890 5888 5887 5886 5885 5884 5883 5882 5881 5880 5880 5879 5878 5878 5877 5876 5876 5875 5875 5874 5874 5873 5873 5873 5873 5874 5874 5874 5874 5874 5875 5875 5875 5875 5875 5875 5875 5875 5875 5875 5875
5891 5890 5889 5888 5886 5885 5884 5883 5882 5881 5880 5879 5879 5878 5877 5877 5876 5876 5875 5875 5874 5874 5873 5872 5872 5873 5873 5873 5873 5874 5874 5874 5874 5874 5874 5874 5874 5874 5874 5874 5874 5874 5874
5890 5889 5887 5886 5885 5884 5883 5882 5881 5880 5879 5878 5878 5877 5876 5876 5875 5875 5874 5873 5873 5873 5872 5872 5872 5872 5872 5873 5873 5873 5873 5873 5873 5873 5873 5873 5873 5873 5873 5873 5873 5873 5873
5889 5887 5886 5884 5883 5882 5881 5880 5879 5878 5878 5877 5876 5875 5875 5875 5874 5874 5873 5873 5872 5872 5871 5871 5871 5871 5871 5871 5871 5871 5872 5872 5872 5872 5872 5872 5872 5872 5872 5872 5872 5871 5871
5887 5886 5885 5883 5881 5880 5879 5878 5877 5876 5875 5875 5874 5874 5873 5873 5873 5873 5872 5872 5871 5871 5871 5870 5870 5870 5870 5870 5870 5871 5871 5871 5871 5871 5871 5871 5871 5871 5871 5870 5870 5870 5870
5885 5884 5883 5881 5879 5878 5877 5876 5875 5874 5873 5873 5873 5872 5872 5871 5871 5871 5871 5870 5870 5870 5869 5869 5869 5869 5869 5869 5869 5869 5869 5869 5869 5869 5869 5869 5869 5869 5869 5869 5869 5869 5868
5882 5881 5880 5878 5877 5875 5874 5873 5872 5872 5871 5870 5870 5870 5869 5869 5869 5869 5869 5869 5868 5868 5868 5868 5868 5868 5869 5868 5868 5868 5868 5868 5868 5868 5868 5868 5867 5867 5867 5867 5867 5867 5866
5879 5878 5877 5876 5874 5873 5872 5871 5870 5869 5868 5868 5867 5867 5867 5867 5867 5867 5867 5867 5867 5867 5867 5867 5866 5867 5867 5867 5867 5867 5867 5867 5867 5867 5866 5866 5866 5866 5865 5865 5865 5865 5864
5877 5875 5874 5873 5872 5871 5869 5868 5867 5867 5866 5865 5865 5864 5864 5864 5864 5865 5865 5865 5865 5865 5865 5865 5865 5865 5865 5865 5865 5865 5865 5865 5865 5865 5865 5864 5864 5864 5863 5863 5863 5863 5862
5873 5873 5871 5870 5869 5868 5866 5865 5864 5863 5863 5863 5862 5862 5862 5862 5862 5862 5862 5862 5863 5863 5863 5863 5863 5863 5863 5863 5863 5863 5863 5863 5863 5863 5863 5862 5862 5862 5861 5861 5861 5860 5860
5870 5869 5868 5867 5866 5864 5863 5862 5861 5860 5860 5860 5860 5860 5859 5859 5859 5859 5860 5860 5860 5860 5860 5861 5861 5861 5861 5861 5861 5861 5861 5861 5861 5861 5860 5860 5860 5860 5859 5859 5858 5858 5857
5866 5866 5864 5862 5862 5861 5860 5859 5859 5858 5857 5857 5857 5857 5857 5857 5857 5857 5857 5857 5858 5858 5858 5858 5859 5859 5859 5859 5859 5859 5859 5859 5859 5858 5858 5857 5857 5857 5857 5856 5856 5855 5855
5862 5862 5861 5859 5858 5858 5857 5856 5856 5855 5854 5854 5854 5854 5854 5854 5854 5854 5854 5855 5855 5855 5855 5855 5855 5856 5856 5856 5856 5856 5856 5856 5856 5856 5855 5855 5854 5854 5854 5853 5853 5852 5851
5857 5857 5856 5856 5855 5854 5853 5853 5852 5852 5851 5851 5851 5851 5851 5851 5851 5851 5851 5851 5852 5852 5852 5852 5852 5852 5853 5853 5852 5852 5852 5852 5852 5852 5852 5851 5851 5851 5850 5850 5849 5849 5848
5853 5852 5852 5852 5851 5850 5850 5849 5849 5848 5848 5847 5847 5847 5847 5848 5848 5848 5848 5848 5848 5849 5849 5849 5849 5849 5849 5849 5849 5849 5849 5848 5848 5848 5848 5848 5847 5847 5847 5846 5846 5845 5845
5849 5848 5848 5847 5847 5847 5846 5846 5845 5845 5844 5844 5844 5843 5844 5844 5844 5844 5844 5844 5844 5845 5845 5846 5846 5846 5846 5846 5846 5845 5845 5845 5845 5845 5844 5844 5844 5843 5843 5843 5842 5842 5841